Powrót do katalogu

COSMOS 1806

AktywnyNawigacjaHEO
NORAD 17213·PAYLOAD·🇷🇺 Russia

Wystrzelony Dec 12, 1986 z Plesetsk Cosmodrome

Loading…

Następne Przeloty (najbliższe 24 godziny)

TLE

ŚwieżeSource: Space-Track

Epoka: Sep 12, 2026, 20:26 UTC

1 17213U 86098A   26255.85178413  .00000078  00000-0  00000-0 0  9997
2 17213  68.6294 141.8111 4774923  76.7665  49.5134  2.00775420291062

Śledź COSMOS 1806 w czasie rzeczywistym z AllMySat

Download on the App Store